Location: Luxembourg
(49.6117°N, 6.1300°E)
Time: 05:08:54
(UTC+01:00)

Tiangong 2 - Pass Details

Date: 25 January 2019
Orbit: 379 x 390 km, 42.8° (Epoch: 21 March)

Event Time Altitude Azimuth Distance (km) Brightness Sun altitude
Exits shadow 07:20:55 - 243° (WSW) 1,745 4.0 -9.2°
Maximum altitude 07:23:19 10° 206° (SSW) 1,412 3.9 -8.8°
Drops below altitude 10° 07:23:31 10° 202° (SSW) 1,414 3.9 -8.8°
Sets 07:27:31 0° 153° (SSE) 2,268 5.8 -8.2°
